Total_Precipitation_Accumulation
0.01 0.01 0.01 0.03 0.03 0.05 0.35 0.46 0.41 0.42 0.43 0.32 0.40 0.51 0.69 0.49 0.30 0.16 0.17 0.06 0.05 0.04 0.02 0.05 0.03 0.03 0.00 0.00 0.00 0.00 0.00 0.00
0.03 0.02 0.02 0.01 0.06 0.04 0.10 0.25 0.22 0.36 0.33 0.20 0.26 0.32 0.51 0.35 0.37 0.15 0.26 0.14 0.14 0.07 0.03 0.03 0.02 0.05 0.01 0.01 0.00 0.00 0.00 0.00
0.01 0.00 0.00 0.01 0.05 0.04 0.02 0.04 0.09 0.19 0.24 0.23 0.11 0.12 0.19 0.27 0.32 0.35 0.30 0.24 0.10 0.09 0.06 0.05 0.04 0.05 0.02 0.01 0.00 0.00 0.00 0.00
0.00 0.00 0.00 0.01 0.01 0.01 0.02 0.02 0.04 0.06 0.14 0.24 0.16 0.20 0.17 0.21 0.36 0.55 0.31 0.18 0.10 0.10 0.05 0.04 0.04 0.04 0.02 0.01 0.00 0.00 0.00 0.00
0.00 0.01 0.01 0.02 0.03 0.03 0.06 0.04 0.03 0.02 0.03 0.07 0.06 0.12 0.11 0.13 0.13 0.25 0.35 0.16 0.14 0.24 0.10 0.05 0.01 0.02 0.04 0.05 0.02 0.02 0.02 0.01
0.00 0.01 0.01 0.02 0.04 0.04 0.03 0.04 0.05 0.03 0.03 0.03 0.04 0.06 0.09 0.06 0.03 0.05 0.23 0.24 0.15 0.16 0.11 0.09 0.06 0.07 0.11 0.18 0.13 0.13 0.14 0.21
0.04 0.05 0.02 0.03 0.05 0.05 0.06 0.05 0.05 0.08 0.08 0.08 0.04 0.09 0.07 0.04 0.04 0.05 0.08 0.15 0.29 0.31 0.23 0.19 0.21 0.23 0.31 0.41 0.46 0.27 0.19 0.19
0.01 0.02 0.02 0.02 0.06 0.04 0.03 0.06 0.16 0.13 0.10 0.08 0.10 0.08 0.07 0.06 0.10 0.20 0.21 0.19 0.36 0.35 0.31 0.30 0.27 0.36 0.42 0.40 0.44 0.38 0.34 0.29
0.01 0.03 0.05 0.06 0.04 0.03 0.02 0.08 0.19 0.22 0.16 0.13 0.16 0.20 0.20 0.22 0.28 0.42 0.44 0.34 0.31 0.44 0.41 0.45 0.37 0.28 0.32 0.33 0.35 0.38 0.38 0.40
0.05 0.02 0.03 0.06 0.05 0.05 0.09 0.10 0.09 0.14 0.17 0.17 0.22 0.28 0.32 0.43 0.46 0.37 0.36 0.27 0.16 0.22 0.30 0.30 0.30 0.43 0.55 0.60 0.55 0.46 0.45 0.31
0.00 0.01 0.00 0.01 0.01 0.06 0.07 0.03 0.06 0.12 0.16 0.17 0.27 0.41 0.42 0.41 0.33 0.43 0.38 0.37 0.38 0.46 0.46 0.49 0.55 0.57 0.59 0.55 0.43 0.34 0.31 0.22
0.00 0.01 0.01 0.01 0.00 0.02 0.09 0.15 0.35 0.35 0.43 0.53 0.45 0.47 0.62 0.69 0.63 0.60 0.58 0.55 0.55 0.58 0.60 0.52 0.39 0.31 0.34 0.39 0.42 0.47 0.46 0.39
0.00 0.00 0.01 0.02 0.02 0.02 0.04 0.10 0.21 0.39 0.44 0.68 0.92 0.77 1.05 1.56 1.62 1.26 1.48 1.49 1.15 0.90 0.68 0.45 0.30 0.19 0.13 0.13 0.19 0.21 0.24 0.29
0.00 0.01 0.02 0.04 0.13 0.19 0.25 0.27 0.35 0.49 0.70 0.83 0.85 0.74 1.13 1.03 0.71 0.53 0.42 0.52 0.49 0.30 0.20 0.15 0.11 0.07 0.05 0.05 0.09 0.20 0.27 0.20
0.03 0.04 0.05 0.07 0.17 0.26 0.29 0.27 0.38 0.43 0.44 0.50 0.41 0.36 0.42 0.41 0.33 0.24 0.20 0.18 0.17 0.16 0.15 0.16 0.12 0.06 0.05 0.10 0.12 0.11 0.13 0.13
0.01 0.02 0.02 0.02 0.06 0.10 0.09 0.12 0.17 0.25 0.24 0.22 0.21 0.29 0.23 0.19 0.13 0.14 0.16 0.18 0.25 0.21 0.21 0.12 0.12 0.16 0.19 0.20 0.16 0.15 0.08 0.05
0.00 0.00 0.01 0.01 0.01 0.01 0.02 0.04 0.08 0.08 0.07 0.15 0.17 0.13 0.16 0.18 0.16 0.19 0.16 0.13 0.16 0.20 0.23 0.24 0.25 0.28 0.37 0.33 0.18 0.08 0.05 0.05
0.00 0.00 0.00 0.01 0.01 0.00 0.01 0.01 0.01 0.02 0.05 0.05 0.06 0.07 0.09 0.09 0.16 0.14 0.13 0.16 0.20 0.16 0.23 0.32 0.35 0.33 0.35 0.24 0.22 0.10 0.10 0.11
0.00 0.00 0.00 0.00 0.00 0.00 0.00 0.00 0.00 0.01 0.03 0.04 0.04 0.05 0.06 0.09 0.10 0.10 0.13 0.18 0.25 0.28 0.31 0.28 0.21 0.17 0.27 0.31 0.36 0.18 0.10 0.08